Holiday

Sunday, January 25, 2015

Talk of Blizzard in Non Compliance for The Northeastern States

In The North East area of The United States show a Warm Front moving toward New York cause caution in Forecast Models to The Public

http://goo.gl/Q68TL7 if not working go to

https://www.dropbox.com/s/9ssdxpg8l8xyca5/OBS%20Timeline%201801%2001252015.txt?dl=0

http://goo.gl/psnAFg

https://onedrive.live.com/redir?page=view&resid=1F19FCAD43C950D4!2590&authkey=!ALBMQ3QAI31GqqU

If still having problems cut and past below;

http://radar.weather.gov/ridge/radar_lite.php?rid=CCX&product=N0R&loop=no

S$™

Guy Perea Presidential Elector President of The United States

Florida Roundup 1717 01252015

FLORIDA REGIONAL WEATHER ROUNDUP NATIONAL WEATHER SERVICE TAMPA BAY RUSKIN FL 500 PM EST SUN JAN 25 2015 NOTE: "FAIR" INDICATES FEW OR NO CLOUDS BELOW 12,000 FEET WITH NO SIGNIFICANT WEATHER AND/OR OBSTRUCTIONS TO VISIBILITY. FLZ001>010-012>015-112-114-115-252300- PANHANDLE FLORIDA CITY SKY/WX TMP DP RH WIND PRES REMARKS PENSACOLA SUNNY 60 46 59 SW22G33 29.88F PENSACOLA NAS MOSUNNY 60 50 69 SW17G36 29.88F MILTON NAS MOSUNNY 61 45 55 SW20G25 29.87S CRESTVIEW SUNNY 61 44 53 SW22G30 29.88F VALPARAISO MOSUNNY 61 49 65 SW16G25 29.89F MARY ESTHER SUNNY 61 47 61 SW13G21 29.89F TRI COUNTY FAIR 61 40 45 SW13G26 29.88F PANAMA CITY FAIR 62 49 62 SW17G30 29.89F TYNDALL AFB FAIR 63 52 67 SW13G21 29.93F APALACHICOLA MOSUNNY 62 50 64 S8 29.95S STATION/POSITION SKY/WX TEMP WIND PRES WAVE SWELL AIR SEA DIR/SP/G HT/PER HT/PER (F) (DEG/KT/KT) (MB) (FT/S) (FT/S) 30.1N 87.6W 61 62 230/ 23/ 29 1011.6F 4/ 5 29.2N 88.2W 63 71 250/ 27/ 31 1014.4F 5/ 4 28.7N 86.0W 65 70 250/ 16/ 17 1015.0R 3/ 5 2/10 PANAMA CITY BEAC 62 62 250/ 21/ 24 1012.7F CAPE SAN BLAS NOT AVBL TOWER C 62 260/ 17/ 18 1014.2R 28.5N 84.5W 65 69 250/ 14/ 19 1014.9R 3/ 9 2/ 9 $$ FLZ011-016>038-118-127-128-134-139-239-252300- NORTH FLORIDA CITY SKY/WX TMP DP RH WIND PRES REMARKS MARIANNA SUNNY 62 42 47 SW21G31 29.87F TALLAHASSEE MOSUNNY 62 40 44 S12 29.91F PERRY SUNNY 57 41 55 SW12 29.96S CROSS CITY N/A 58 43 57 S9 29.97R LAKE CITY FAIR 61 37 41 SW12 29.94S GAINESVILLE SUNNY 61 39 44 W10 29.95S MAYPORT NAS MOSUNNY 62 32 32 SW10 29.92F JACKSONVILLE PTSUNNY 61 32 33 SW12 29.92S JAX NAS MOSUNNY 65 30 27 SW13 29.94S JAX CRAIG SUNNY 62 33 33 SW12 29.93F JAX CECIL SUNNY 61 32 33 SW7 29.93F FERNANDINA BEA FAIR 66 32 28 SW8 29.91S ST AUGUSTINE SUNNY 62 33 33 SW8 29.95S STATION/POSITION SKY/WX TEMP WIND PRES WAVE SWELL AIR SEA DIR/SP/G HT/PER HT/PER (F) (DEG/KT/KT) (MB) (FT/S) (FT/S) SHELL POINT 57 190/ 10/ 15 N/A KEATON BEACH 56 190/ 12/ 14 1014.8F CEDAR KEY 54 190/ 7/ 8 1015.8F FERNANDINA 61 57 220/ 10/ 11 1012.5S 30.7N 81.3W 58 N/A 2/ 3 MAYPORT 61 59 230/ 9/ 12 N/A 31.4N 80.9W 53 55 180/ 12/ 14 1012.9F 1/ 3 ST AUGUSTINE 56 160/ 10/ 11 1014.4F $$ FLZ040-043>046-052-053-057-058-063-144-252300- INTERIOR CENTRAL FLORIDA CITY SKY/WX TMP DP RH WIND PRES REMARKS OCALA SUNNY 61 41 48 SW9 29.97S THE VILLAGES N/A 61 45 55 SW12 29.88R LEESBURG PTSUNNY 62 43 49 W7 29.97F SANFORD PTSUNNY 61 33 35 SW8 29.96F ORLANDO EXEC MOSUNNY 62 34 35 SW5 29.97F ORLANDO INTL PTSUNNY 64 34 32 SW3 29.97F KISSIMMEE SUNNY 64 34 32 CALM 29.98S WINTER HAVEN SUNNY 64 39 39 SW3 29.99S LAKELAND SUNNY 64 43 45 W7 29.98S BARTOW PTSUNNY 63 39 42 NW5 29.99S OKEECHOBEE SUNNY 61 43 51 S5 29.99S $$ FLZ041-047-054-059-064-141-147-252300- EAST CENTRAL FLORIDA CITY SKY/WX TMP DP RH WIND PRES REMARKS ORMOND BEACH SUNNY 61 36 39 SW3 29.96F DAYTONA BEACH PTSUNNY 62 37 39 S6 29.96F DELAND MOCLDY N/A N/A N/A SW7 29.97S NEW SMYRNA BEA SUNNY 59 41 51 E6 N/A JFK SPACE CTR SUNNY 63 35 35 SW3 29.96F TITUSVILLE PTSUNNY 63 36 36 VRB6 29.98S CAPE CANAVERAL SUNNY 62 38 42 S6 29.97S PATRICK AFB SUNNY 60 38 43 SE6 29.98S MELBOURNE SUNNY 61 37 41 E6 29.97F VERO BEACH SUNNY 62 39 42 E6 29.98S FT PIERCE SUNNY 63 41 44 E6 29.98S STUART SUNNY 63 39 42 E5 29.99F STATION/POSITION SKY/WX TEMP WIND PRES WAVE SWELL AIR SEA DIR/SP/G HT/PER HT/PER (F) (DEG/KT/KT) (MB) (FT/S) (FT/S) 28.5N 80.2W 59 71 220/ 4/ 6 1015.7F 28.9N 78.5W 66 76 260/ 6/ 10 1015.3R 4/ 6 5/ 6 TRIDENT PIER 61 65 120/ 3/ 6 1014.5F 28.4N 80.5W 65 N/A 1/10 27.6N 80.2W 73 N/A 3/ 8 $$ FLZ050-056-061-142-242-148-248-149-249-151-251-155-255- 160-260-252300- WEST CENTRAL FLORIDA CITY SKY/WX TMP DP RH WIND PRES REMARKS CRYSTAL RIVER FAIR 59 41 51 W5 29.99R INVERNESS FAIR 59 45 58 CALM 29.99S BROOKSVILLE CLOUDY 61 47 59 W6 30.00R ZEPHYRHILLS FAIR 63 41 45 CALM 29.99S CLEARWATER MOSUNNY 63 48 58 W6 30.00R TAMPA INTL PTSUNNY 61 46 57 SW7 30.00R TAMPA EXEC MOSUNNY 66 45 45 S6 29.99S PLANT CITY N/A N/A N/A N/A MISG N/A MACDILL AFB SUNNY 63 48 58 S8 30.01R PETER O KNIGHT SUNNY 64 50 59 SW6 30.00R ST PETERSBURG SUNNY 60 46 59 S6 29.99R SARASOTA SUNNY 61 48 62 W5 30.00R VENICE FAIR 61 48 63 W3 30.03R STATION/POSITION SKY/WX TEMP WIND PRES WAVE SWELL AIR SEA DIR/SP/G HT/PER HT/PER (F) (DEG/KT/KT) (MB) (FT/S) (FT/S) CEDAR KEY 54 190/ 7/ 8 1015.8F 28.5N 84.5W 65 69 250/ 14/ 19 1014.9R 3/ 9 2/ 9 27.3N 84.3W 73 N/A 5/10 2/11 CLEARWATER BEACH 58 64 200/ 7/ 8 1015.6R MIDDLE TAMPA BAY 60 240/ 9/ 10 1016.1R VENICE 61 66 250/ 4/ 5 1016.1R $$ FLZ066-069-070-075>078-162-262-165-265-252300- SOUTHWEST FLORIDA AND KEYS CITY SKY/WX TMP DP RH WIND PRES REMARKS PUNTA GORDA SUNNY 65 48 54 W9 30.01R FT MYERS MOSUNNY 64 46 52 W8 29.99R SOUTHWEST INTL MOSUNNY 64 45 49 NW6 30.00R NAPLES MOSUNNY 64 50 60 NW6 30.00S MARCO ISLAND CLEAR 64 48 55 W6 29.99S IMMOKALEE CLEAR N/A N/A N/A CALM 30.00R MARATHON PTSUNNY 65 53 65 NW7 30.01S KEY WEST NAS PTSUNNY 66 53 63 N6 30.01S KEY WEST INTL MOSUNNY 67 55 65 NE6 30.01S STATION/POSITION SKY/WX TEMP WIND PRES WAVE SWELL AIR SEA DIR/SP/G HT/PER HT/PER (F) (DEG/KT/KT) (MB) (FT/S) (FT/S) VENICE 61 66 250/ 4/ 5 1016.1R NAPLES 62 76 310/ 4/ 5 1016.5S 26.0N 85.6W 68 73 260/ 10/ 16 1016.4R 4/ 9 3/ 9 DRY TORTUGAS 67 360/ 4/ 6 1015.7F NW FL BAY 64 350/ 11/ 13 1016.6R SAND KEY 65 20/ 6/ 7 1016.1F SOMBRERO KEY 64 330/ 8/ 11 1016.7F LONG KEY 65 71 320/ 8/ 10 1016.8F MOLASSES REEF 66 75 270/ 2/ 2 1015.9R $$ FLZ067-068-071>074-168-172>174-252300- SOUTHEAST FLORIDA CITY SKY/WX TMP DP RH WIND PRES REMARKS W PALM BEACH PTSUNNY 66 31 27 W5 29.98S FT LAUDER-EXEC PTSUNNY 65 36 34 W7 29.99S FT LAUDERDALE CLOUDY 64 38 38 W6 29.98F POMPANO BEACH PTSUNNY 68 35 29 NW5 29.99F PEMBROKE PINES PTSUNNY 65 40 39 CALM 30.00F OPA LOCKA PTSUNNY 65 40 39 W6 29.99F MIAMI PTSUNNY 66 41 40 NW5 30.00F WEST KENDALL PTSUNNY 67 41 38 NW6 30.00F HOMESTEAD PTSUNNY 67 42 41 N3 30.00S STATION/POSITION SKY/WX TEMP WIND PRES WAVE SWELL AIR SEA DIR/SP/G HT/PER HT/PER (F) (DEG/KT/KT) (MB) (FT/S) (FT/S) PORT EVERGLADES 65 180/ 2/ 4 1015.3 VIRGINIA KEY 66 71 170/ 2/ 3 1016.0F 000 ASUS42 KKEY 252210 RWRKEY FLORIDA REGIONAL WEATHER ROUNDUP FOR THE FLORIDA KEYS NATIONAL WEATHER SERVICE KEY WEST FLORIDA 500 PM EST SUN JAN 25 2015 ...SOUTH FLORIDA AND THE KEYS... CITY SKY/WX TMP DP RH WIND PRES REMARKS FORT MYERS MOSUNNY 64 46 52 W8 29.99R SW REGIONAL AP MOSUNNY 64 45 49 NW6 30.00R NAPLES MOSUNNY 64 50 60 NW6 30.00S MIAMI PTSUNNY 66 41 40 NW5 30.00F WEST KENDALL PTSUNNY 67 41 38 NW6 30.00F HOMESTEAD PTSUNNY 67 42 41 N3 30.00S MARATHON PTSUNNY 65 53 65 NW7 30.01S BOCA CHICA NAS PTSUNNY 66 53 63 N6 30.01S KEY WEST INTL MOSUNNY 67 55 65 NE6 30.01S ...INTERNATIONAL WEATHER... CITY SKY/WX TMP DP RH WIND PRES REMARKS NASSAU BAHAMAS NOT AVBL CANCUN MEXICO MOSUNNY 73 61 64 NE8 30.01F COZUMEL MEXICO MOSUNNY 73 63 68 NE8 30.01F ADJACENT COASTAL WATERS... STATION/POSITION TIME SKY/WX TEMP WIND PRES WAVE AIR SEA DIR/SP/G HT/PER (UTC) (F) (DEG/KT/KT) (MB) (FT/S) PULASKI SHOAL LI NOT AVBL SAND KEY NOT AVBL SOMBRERO KEY NOT AVBL LONG KEY NOT AVBL MOLASSES REEF NOT AVBL FOWEY ROCKS NOT AVBL Buoy 42080 NOT AVBL $$
S$™

https://www.dropbox.com/s/k9bz0c3xq962pvx/WBUSA%E2%84%A2%20Weather%20of%20Cities%20of%20The%20United%20States%2001252015.txt?dl=0

http://goo.gl/Xyy95L

Guy Perea Presidential Elector President of The United States

WBUSA™ Cities of The United States Weather 01252015

Selected Cities
SELECTED CITIES WEATHER SUMMARY AND FORECASTS...PART 1 OF 4 NWS/NDFD TELECOMMUNICATION OPERATIONS CENTER SILVER SPRING MD 750 AM EST SUN JAN 25 2015 TEMPERATURES INDICATE DAYTIME HIGH...NIGHTTIME LOW B INDICATES TEMPERATURES BELOW ZERO PRECIPITATION FOR 24 HOURS ENDING AT 7 AM EST FORECAST FORECAST SAT...JAN 24 SUN....JAN 25 MON....JAN 26 CITY HI/LO PCPN WEA HI/LO WEA HI/LO ABILENE TX 58 40 SUNNY 64/35 SUNNY 69/43 AKRON CANTON 32 31 .02 SNOW 34/16 SNOW 25/15 ALBANY NY 34 30 .06 PTCLDY 30/04 SNOW 20/14 ALBUQUERQUE 51 25 SUNNY 53/28 SUNNY 56/35 ALLENTOWN 38 33 .03 MOCLDY 36/18 SNOW 26/21 AMARILLO 45 32 SUNNY 52/33 SUNNY 67/31 ANCHORAGE 17 05 VRYCLD 06/08B VRYCLD 08/01B ASHEVILLE 39 26 PTCLDY 51/34 MOCLDY 42/26 ATLANTA 49 31 PTCLDY 56/40 MOCLDY 48/34 ATLANTIC CITY 38 32 .05 MOCLDY 43/27 RNSNOW 37/28 AUSTIN 62 34 SUNNY 68/42 SUNNY 71/46 BALTIMORE 40 34 MOCLDY 46/30 SNOW 31/24 BATON ROUGE 59 39 SUNNY 65/40 SUNNY 59/40 BILLINGS 56 40 WINDY 52/39 WINDY 56/36 BIRMINGHAM 49 30 SUNNY 58/39 PTCLDY 44/34 BISMARCK 42 33 .24 CLOUDY 38/36 PTCLDY 46/27 BOISE 40 28 MOCLDY 42/30 PTCLDY 46/31 BOSTON 33 31 .60 PTCLDY 35/13 SNOW 24/21 BRIDGEPORT 37 33 .14 PTCLDY 38/16 SNOW 25/25 BROWNSVILLE 65 45 PTCLDY 70/45 SUNNY 70/50 BUFFALO 30 18 .04 PTCLDY 18/09 SNOW 19/13 BURLINGTON VT 37 20 .01 MOCLDY 20/02B MOCLDY 14/04 CARIBOU 30 25 .02 MOCLDY 22/09B VRYCLD 03/07B CASPER 39 24 PTCLDY 46/32 SUNNY 52/33 CHARLESTON SC 57 34 .03 SUNNY 60/42 MOCLDY 59/37 CHARLESTON WV 33 31 .04 MOCLDY 49/37 RAIN 38/28 CHARLOTTE 53 28 .04 SUNNY 56/36 MOCLDY 51/30 CHATTANOOGA 48 29 MOCLDY 54/38 MOCLDY 42/29 CHEYENNE 47 34 WINDY 55/37 SUNNY 64/36 CHICAGO 43 31 SNOW 33/20 MOCLDY 29/25 CINCINNATI 43 30 RAIN 41/23 MOCLDY 31/26 CLEVELAND 31 31 .02 SNOW 31/14 CLOUDY 22/14 COLORADO SPGS 54 27 SUNNY 54/33 SUNNY 64/33 COLUMBIA SC 58 29 SUNNY 59/41 MOCLDY 55/34 COLUMBUS GA 53 30 SUNNY 60/40 MOCLDY 51/36 COLUMBUS OH 37 34 RAIN 38/19 CLOUDY 24/17 $$
SELECTED CITIES WEATHER SUMMARY AND FORECASTS...PART 2 OF 4 NWS/NDFD TELECOMMUNICATION OPERATIONS CENTER SILVER SPRING MD 750 AM EST SUN JAN 25 2015 TEMPERATURES INDICATE DAYTIME HIGH...NIGHTTIME LOW B INDICATES TEMPERATURES BELOW ZERO PRECIPITATION FOR 24 HOURS ENDING AT 7 AM EST FORECAST FORECAST SAT...JAN 24 SUN....JAN 25 MON....JAN 26 CITY HI/LO PCPN WEA HI/LO WEA HI/LO CONCORD NH 30 26 .26 SUNNY 30/01B PTCLDY 18/10 CORPUS CHRISTI 63 41 PTCLDY 69/44 SUNNY 67/46 DALLAS FT WORTH 60 41 WINDY 66/38 SUNNY 69/46 DAYTON 39 33 RNSNOW 37/17 MOCLDY 25/19 DAYTONA BEACH 70 39 .12 SUNNY 62/51 PTCLDY 64/38 DENVER 53 27 PTCLDY 57/37 SUNNY 69/36 DES MOINES 53 38 .06 RNSNOW 36/25 MOCLDY 50/32 DETROIT 35 28 MOCLDY 30/11 PTCLDY 20/11 DULUTH 36 17 MOCLDY 20/15 SNOW 34/21 EL PASO 54 30 PTCLDY 57/35 MOCLDY 61/43 ELKINS 33 29 .01 CLOUDY 43/31 SNOW 37/21 ERIE 31 28 .04 CLOUDY 28/13 SNOW 23/15 EUGENE 68 40 CLOUDY 51/43 CLOUDY 52/44 EVANSVILLE 49 39 SHWRS 45/27 MOCLDY 37/30 FAIRBANKS B14 21B VRYCLD B22/40B VRYCLD B29/42B FARGO 35 22 .01 MOCLDY 28/25 PTCLDY 41/23 FLAGSTAFF 48 34 SUNNY 52/27 MOCLDY 50/36 FLINT 39 26 MOCLDY 25/07 PTCLDY 20/09 FORT SMITH 56 35 MOCLDY 55/33 SUNNY 62/38 FORT WAYNE 37 32 RNSNOW 34/11 MOCLDY 23/17 FRESNO 53 41 PTCLDY 52/44 MOCLDY 53/49 GOODLAND 58 34 WINDY 57/37 SUNNY 70/36 GRAND JUNCTION 41 22 SUNNY 44/22 SUNNY 48/30 GRAND RAPIDS 38 27 SNOW 26/09 PTCLDY 21/11 GREAT FALLS 53 43 WINDY 61/45 PTCLDY 64/39 GREEN BAY 38 20 PTCLDY 19/08 CLOUDY 25/22 GREENSBORO 48 27 .02 SUNNY 55/37 MOCLDY 48/29 HARRISBURG 38 34 .01 CLOUDY 38/22 SNOW 27/23 HARTFORD SPGFLD 34 31 .24 PTCLDY 34/11 SNOW 24/17 HELENA 50 45 PTCLDY 56/38 PTCLDY 60/26 HONOLULU 79 68 SUNNY 78/64 SUNNY 79/64 HOUSTON INTCNTL 62 40 SUNNY 68/43 SUNNY 65/45 HUNTSVILLE AL 50 30 MOCLDY 54/35 MOCLDY 43/30 INDIANAPOLIS 39 29 RAIN 37/18 MOCLDY 30/24 JACKSON MS 56 35 SUNNY 65/41 PTCLDY 54/37 JACKSONVILLE 62 36 SUNNY 62/45 PTCLDY 60/36 JUNEAU 44 38 .42 SHWRS 44/32 MOCLDY 35/24 KANSAS CITY 59 43 .08 WINDY 42/28 PTCLDY 57/34 KEY WEST 76 65 .04 PTCLDY 69/62 WINDY 73/61 KNOXVILLE 43 32 .04 MOCLDY 52/38 SHWRS 42/29 LAKE CHARLES 58 41 SUNNY 65/44 SUNNY 61/44 LANSING 37 24 SNOW 24/09 PTCLDY 20/08 LAS VEGAS 68 47 SUNNY 72/47 MOCLDY 63/50 LEXINGTON 35 31 SHWRS 45/27 FLRRYS 33/28 $$
SELECTED CITIES WEATHER SUMMARY AND FORECASTS...PART 3 OF 4 NWS/NDFD TELECOMMUNICATION OPERATIONS CENTER SILVER SPRING MD 750 AM EST SUN JAN 25 2015 TEMPERATURES INDICATE DAYTIME HIGH...NIGHTTIME LOW B INDICATES TEMPERATURES BELOW ZERO PRECIPITATION FOR 24 HOURS ENDING AT 7 AM EST FORECAST FORECAST SAT...JAN 24 SUN....JAN 25 MON....JAN 26 CITY HI/LO PCPN WEA HI/LO WEA HI/LO LINCOLN 57 36 .03 WINDY 41/27 PTCLDY 62/29 LITTLE ROCK 63 38 MOCLDY 59/35 SUNNY 58/40 LOS ANGELES 82 52 SUNNY 82/55 MOCLDY 68/56 LOUISVILLE 46 36 SHWRS 50/26 FLRRYS 36/31 LUBBOCK 54 33 SUNNY 58/30 SUNNY 66/35 MACON 53 28 SUNNY 60/40 MOCLDY 54/34 MADISON 35 25 SNOW 24/13 FZDRZL 28/26 MEDFORD 59 32 PTCLDY 65/39 PTCLDY 62/39 MEMPHIS 56 37 MOCLDY 56/36 PTCLDY 48/39 MIAMI BEACH 78 53 SUNNY 70/55 MOCLDY 74/52 MIDLAND ODESSA 58 36 SUNNY 63/34 SUNNY 67/38 MILWAUKEE 42 28 SNOW 26/19 FZDRZL 28/25 MPLS ST PAUL 42 25 .03 MOCLDY 25/19 FZDRZL 39/25 MISSOULA 41 32 .03 PTCLDY 48/27 SUNNY 41/28 MOBILE 54 35 PTCLDY 63/40 SUNNY 57/39 MONTGOMERY 53 30 SUNNY 61/41 PTCLDY 49/34 NASHVILLE 50 34 SHWRS 53/33 CLOUDY 39/32 NEW ORLEANS 58 41 SUNNY 63/45 SUNNY 57/44 NEW YORK CITY 39 34 .06 PTCLDY 41/21 SNOW 25/24 NEWARK 38 32 .04 PTCLDY 40/21 SNOW 27/25 NORFOLK VA 41 35 .33 PTCLDY 52/40 RAIN 50/33 NORTH PLATTE 53 33 .01 WINDY 48/24 SUNNY 66/25 OKLAHOMA CITY 63 42 WINDY 60/37 SUNNY 68/40 OMAHA 55 35 .03 RNSNOW 38/29 PTCLDY 57/30 ORLANDO 71 41 .05 SUNNY 66/52 WINDY 64/41 PADUCAH 51 41 SHWRS 47/29 MOCLDY 41/32 PENDLETON 64 43 PTCLDY 63/41 PTCLDY 56/36 PEORIA 49 36 .02 RNSNOW 37/19 MOCLDY 36/29 PHILADELPHIA 39 33 .01 MOCLDY 41/24 SNOW 32/23 PHOENIX 77 50 SUNNY 79/56 CLOUDY 66/56 PITTSBURGH 29 29 SNOW 34/23 SNOW 32/18 POCATELLO 32 30 FOG 43/23 SUNNY 44/28 PORTLAND ME 32 28 .27 SUNNY 30/02 PTCLDY 19/11 PORTLAND OR 60 45 .01 PTCLDY 55/42 MOCLDY 56/42 PROVIDENCE 34 30 .52 SUNNY 36/13 SNOW 27/22 PUEBLO 57 24 SUNNY 58/27 SUNNY 69/31 RALEIGH DURHAM 49 29 .05 SUNNY 56/38 MOCLDY 50/30 RAPID CITY 57 36 PTCLDY 51/38 SUNNY 64/35 RENO 59 28 SUNNY 62/30 MOCLDY 58/39 RICHMOND 44 32 .03 PTCLDY 51/37 RAIN 45/29 ROANOKE 43 34 MOCLDY 50/37 RAIN 41/29 ROCHESTER NY 31 20 MOCLDY 19/07 SNOW 19/14 ROCKFORD 40 30 SNOW 31/14 CLOUDY 29/26 SACRAMENTO 51 44 PTCLDY 56/42 PTCLDY 60/50 ST LOUIS 55 46 .04 RAIN 45/26 PTCLDY 45/34 ST PETERSBURG 65 54 SUNNY 64/55 PTCLDY 64/52 ST THOMAS VI 77 72 MM SUNNY 83/74 PTCLDY 84/75 $$
SELECTED CITIES WEATHER SUMMARY AND FORECASTS...PART 4 OF 4 NWS/NDFD TELECOMMUNICATION OPERATIONS CENTER SILVER SPRING MD 750 AM EST SUN JAN 25 2015 TEMPERATURES INDICATE DAYTIME HIGH...NIGHTTIME LOW B INDICATES TEMPERATURES BELOW ZERO PRECIPITATION FOR 24 HOURS ENDING AT 7 AM EST FORECAST FORECAST SAT...JAN 24 SUN....JAN 25 MON....JAN 26 CITY HI/LO PCPN WEA HI/LO WEA HI/LO SALEM OR 64 43 CLOUDY 52/43 CLOUDY 56/42 SALT LAKE CITY 42 33 MOCLDY 44/30 SUNNY 47/33 SAN ANGELO 62 35 SUNNY 66/32 SUNNY 72/42 SAN ANTONIO 64 39 SUNNY 69/44 SUNNY 73/47 SAN DIEGO 79 55 SUNNY 78/57 MOCLDY 69/53 SAN FRANCISCO 64 52 SUNNY 65/50 PTCLDY 64/53 SAN JOSE 70 43 SUNNY 71/45 PTCLDY 70/47 SAN JUAN PR 85 72 .73 SUNNY 86/73 PTCLDY 88/74 SANTA FE 45 24 SUNNY 48/22 SUNNY 53/32 ST STE MARIE 35 09B .03 SUNNY 11/05B FLRRYS 16/04 SAVANNAH 58 35 SUNNY 62/42 MOCLDY 60/38 SEATTLE 58 52 PTCLDY 60/47 PTCLDY 59/47 SHREVEPORT 59 35 SUNNY 64/38 SUNNY 60/43 SIOUX CITY 50 34 .09 CLOUDY 40/28 PTCLDY 54/29 SIOUX FALLS 42 33 .10 CLOUDY 34/27 PTCLDY 49/27 SOUTH BEND 42 34 SNOW 33/09 MOCLDY 26/20 SPOKANE 41 37 FOG 47/35 PTCLDY 46/35 SPRINGFIELD IL 50 39 .02 RNSNOW 42/22 MOCLDY 37/30 SPRINGFIELD MO 57 45 CLOUDY 44/27 SUNNY 55/34 SYRACUSE 32 22 FLRRYS 23/00 SNOW 18/10 TALLAHASSEE 59 30 PTCLDY 65/42 PTCLDY 58/36 TAMPA 66 46 SUNNY 64/53 PTCLDY 64/48 TOLEDO 34 33 SNOW 33/09 PTCLDY 19/10 TOPEKA 60 44 WINDY 45/27 PTCLDY 62/31 TUCSON 71 49 PTCLDY 74/52 CLOUDY 64/50 TULSA 62 50 WINDY 56/31 SUNNY 68/38 TUPELO 54 33 MOCLDY 58/37 MOCLDY 47/36 WACO 64 35 SUNNY 67/38 SUNNY 69/42 WASHINGTON DC 45 36 MOCLDY 50/36 SNOW 36/27 W PALM BEACH 77 47 SUNNY 70/54 MOCLDY 73/50 WICHITA 66 47 WINDY 51/30 SUNNY 68/36 WICHITA FALLS 61 40 SUNNY 63/35 SUNNY 70/39 WILKES BARRE 35 30 .03 MOCLDY 34/13 SNOW 24/14 WILMINGTON DE 38 32 .01 MOCLDY 42/25 SNOW 33/26 YAKIMA 57 31 PTCLDY 48/33 MOCLDY 47/33 YOUNGSTOWN 30 30 .05 SNOW 31/16 SNOW 26/14 YUMA 77 52 SUNNY 80/58 SHWRS 61/53 NATIONAL TEMPERATURE EXTREMES HIGH SAT...85 AT FULLERTON CA LOW SUN...9 BELOW ZERO AT SAULT STE. MARIE MI $$

S$™

https://www.dropbox.com/s/k9bz0c3xq962pvx/WBUSA%E2%84%A2%20Weather%20of%20Cities%20of%20The%20United%20States%2001252015.txt?dl=0

http://goo.gl/urBgi1

Guy Perea Presidential Elector President of The United States

News Service January 25 2015 cmt1™

---------- Forwarded message ----------
From: "Columbia Mountain Times™" <noreply+feedproxy@google.com>
Date: Jan 25, 2015 10:23 AM
Subject: cmt1
To: <dprit4@gmail.com>
Cc:

cmt1


Armed Forces Expeditionary Medal Act to Allot to Rear Admiral Perea G.R. in Future Action Korea

Posted: 25 Jan 2015 06:21 AM PST

The Armed Forces Expeditionary Medal(AFEM) is a military award of the United States military, which was first created in 1961 by Executive Order of President John Kennedy. The medal is awarded for...

[[ This is a content summary only. Visit my website for full links, other content, and more! ]]

Wind Advisory at Sandberg

Posted: 25 Jan 2015 04:53 AM PST

Wind Advisory Sandberg Until: Sun, 3:00 pm PDT #mycast http://goo.gl/2I3fN9 Guy Perea Presidential Elector President of The United States

[[ This is a content summary only. Visit my website for full links, other content, and more! ]]

Abridged summary of wbureau@googlegroups.com - 20 updates in 20 topics

Posted: 25 Jan 2015 04:27 AM PST

Guy Perea Presidential Elector President of The United States ---------- Forwarded message ---------- From: <wbureau@googlegroups.com> Date: Jan 24, 2015 9:14 PM Subject: Abridged summary of...

[[ This is a content summary only. Visit my website for full links, other content, and more! ]]

Winter Storm Watch Gray Maine

Posted: 25 Jan 2015 04:25 AM PST

Winter Storm Watch at Gray Until: Wed, 4:00 am EDT #mycast http://goo.gl/wuyKX7 Guy Perea Presidential Elector President of The United States

[[ This is a content summary only. Visit my website for full links, other content, and more! ]]

Winter Storm Watch New York

Posted: 25 Jan 2015 04:23 AM PST

Winter Storm Watch at New York Until: Wed, 12:00 am EDT #mycast http://goo.gl/c3MRHc Guy Perea Presidential Elector President of The United States

[[ This is a content summary only. Visit my website for full links, other content, and more! ]]

High Surf Advisory San Francisco California

Posted: 25 Jan 2015 04:21 AM PST

High Surf Advisory  at San Francisco Until: Sun, 3:00 pm PDT #mycast http://goo.gl/kT2za1 Guy Perea Presidential Elector President of The United States

[[ This is a content summary only. Visit my website for full links, other content, and more! ]]

The research on left shoulder knot two fingers from the neck from Computer blue tooth

Posted: 24 Jan 2015 03:47 PM PST

#health #healthy The Impact of Machines on Our Wellbeing The Impact of Machines on Our Wellbeing The Impact of Machines on Our Wellbeing , It's hard to envision our regular existence without...

[[ This is a content summary only. Visit my website for full links, other content, and more! ]]

Upper Air Soundings Tampa Florida 01242015

Posted: 24 Jan 2015 02:25 PM PST

Guy Perea Presidential Elector President of The United States

[[ This is a content summary only. Visit my website for full links, other content, and more! ]]

Flood Statement Morehead NC

Posted: 24 Jan 2015 02:14 PM PST

FLOOD STATEMENT NATIONAL WEATHER SERVICE NEWPORT/MOREHEAD CITY, NC 933 AM EST SAT JAN 24 2015 ...THE FLOOD WARNING IS EXTENDED FOR THE FOLLOWING RIVERS IN NORTH CAROLINA...   CONTENTNEA CREEK...

[[ This is a content summary only. Visit my website for full links, other content, and more! ]]

USS CONSTELLATION CVA64 Craft Advisory and Public Release of tornado information

Posted: 24 Jan 2015 12:44 PM PST

Small Craft Advisory USS CONTELLATION CVA64 Until: Sat, 7:00 pm EDT #mycast http://goo.gl/f2ZRA2 PRELIMINARY LOCAL STORM REPORT NATIONAL WEATHER SERVICE TAMPA BAY AREA - RUSKIN FL 1247 PM EST SAT...

[[ This is a content summary only. Visit my website for full links, other content, and more! ]]

Winter Weather Advisory Gray

Posted: 24 Jan 2015 12:35 PM PST

Winter Weather Advisory at Gray Until: Sun, 12:00 am EDT #mycast http://goo.gl/wf7l5a

[[ This is a content summary only. Visit my website for full links, other content, and more! ]]

News Service January 24 2015 cmt1™

Posted: 24 Jan 2015 08:08 AM PST

---------- Forwarded message ---------- From: "Columbia Mountain Times™" <noreply+feedproxy@google.com> Date: Jan 24, 2015 10:55 AM Subject: cmt1 To: <dprit4@gmail.com> Cc: ...

[[ This is a content summary only. Visit my website for full links, other content, and more! ]]
You are subscribed to email updates from Columbia Mountain Times™
To stop receiving these emails, you may unsubscribe now.
Email delivery powered by Google
Google Inc., 1600 Amphitheatre Parkway, Mountain View, CA 94043, United States